IRIDIUM 159 (43578 NORAD) Tracking and Keplerian Element Data

This shows tracking and keplerian element data for the satellite.

Feedback or suggestion? Click here.




ElementValue
Catalog43578
NameIRIDIUM 159
Epoch Orbit419
Epoch Day235.34822394
Epoch Year2018
RAAN169.7802
Inclination86.4022
Eccentricity0.0002415
Argument of Perigee86.5033
Mean Anonmoly273.6439
Mean Motion14.34218567
Decay Rate2.3E-07
L11 43578U 18061K 18235.34822394 .00000023 00000-0 98299-6 0 9995
L22 43578 86.4022 169.7802 0002415 86.5033 273.6439 14.34218567 4190

Live tracking and technical data element details for IRIDIUM 159 (NORAD 43578). IRIDIUM 159 can be tracked NOW for your location showing map with azimuth and elevation plus other details from your city location.

Track the satellite on the map from your city or location and see movement details for azimuth, elevation, latitude, longitude, range, height, and movement on the map or in text.







IsCatalogInMostPopularTable: catalog: 43578, numindb: 74
Update: records affected: 1



GetName: 43578 IRIDIUM 159

Hit Count: updated at: Sat, 17 Nov 2018 02:21:53 GMT